Flag for Fiji Weather past 2 weeks in Lautoka, Fiji

Now
79 °F

Scattered clouds.


Feels Like: 79 °F
Forecast: 69 / 80 °F
Wind: 8 mph from Southeast

Location: Nandi

Current Time: Aug 30, 2015 at 1:46:43 PM

Latest Report: Aug 30, 2015 at 1:00 PM


Visibility: N/A

Pressure: 29.98 "Hg

Humidity: 42%

Dew point: 54 °F

Location of LautokaLocation

Historic Weather in Lautoka — Graph

°F

Lautoka temperature yesterday

Maximum temperature yesterday: 81 °F (at 12:00 PM)
Minimum temperature yesterday: 59 °F (at 3:00 AM)
Average temperature yesterday: 70 °F

Past Weeks' High & Low Weather Summary

 TemperatureHumidityPressure
High84 °F (Aug 25, 1:00 PM)100% (Aug 16, 5:00 PM)30.09 "Hg (Aug 16, 5:00 PM)
Low59 °F (Aug 29, 3:00 AM)42% (Aug 26, 2:00 PM)29.86 "Hg (Aug 16, 3:00 PM)
Average73 °F79%29.98 "Hg
* Reported Aug 15 1:00 PM — Aug 30 1:00 PM, Lautoka, Weather by CustomWeather, © 2015

Note: Actual official high and low records may vary slightly from our data, if they occured in-between our weather recording intervals... More about our weather records

Advertising

Lautoka weather history for previous 24 hours

 ConditionsComfort  
Time TempWeatherWind HumidityBarometerVisibility
1:00 PM
Sun, Aug 30
79 °FScattered clouds.8 mph42%29.98 "HgN/A
12:00 PM79 °FScattered clouds.9 mph45%30.01 "HgN/A
11:00 AM75 °FScattered clouds.12 mph50%30.04 "HgN/A
10:00 AM75 °FPassing clouds.12 mph50%30.07 "HgN/A
9:00 AM73 °FPassing clouds.10 mph57%30.07 "HgN/A
8:00 AM70 °FPassing clouds.7 mph69%30.07 "HgN/A
7:00 AM64 °FBroken clouds.3 mph88%30.07 "HgN/A
6:00 AM64 °FPassing clouds.3 mph83%30.04 "HgN/A
5:00 AM63 °FPassing clouds.7 mph88%30.04 "HgN/A
4:00 AM63 °FPassing clouds.2 mph94%30.04 "HgN/A
3:00 AM64 °FPassing clouds.2 mph94%30.04 "HgN/A
2:00 AM64 °FPassing clouds.2 mph94%30.07 "HgN/A
1:00 AM66 °FPassing clouds.3 mph88%30.07 "HgN/A
12:00 AM66 °FPassing clouds.5 mph88%30.07 "HgN/A
11:00 PM
Sat, Aug 29
68 °FPassing clouds.8 mph78%30.07 "HgN/A
10:00 PM68 °FPassing clouds.6 mph78%30.07 "HgN/A
9:00 PM70 °FPassing clouds.5 mph73%30.07 "HgN/A
7:00 PM72 °FPartly cloudy.8 mph69%30.04 "HgN/A
6:00 PM75 °FPartly sunny.5 mph61%30.01 "HgN/A
5:00 PM75 °FScattered clouds.9 mph57%29.98 "HgN/A
4:00 PM77 °FScattered clouds.12 mph54%29.98 "HgN/A
3:00 PM79 °FScattered clouds.14 mph51%29.98 "HgN/A
2:00 PM79 °FScattered clouds.14 mph48%30.01 "HgN/A
1:00 PM77 °FScattered clouds.9 mph54%30.04 "HgN/A
Weather by CustomWeather, © 2015

See weather overviewHow to use our weather pages